Location: M�nchen
(48.1404°N, 11.6043°E)
Time: 17:52:06
(UTC+01:00)

ISS - Visible Passes

Search period start: 13 November 2025 00:00
Search period end: 23 November 2025 00:00
Orbit: 415 x 421 km, 51.6° (Epoch: 13 November)

Date Brightness Start Highest point End Pass type
(mag) Time Alt. Az. Time Alt. Az. Time Alt. Az.
13 Nov -2.1 18:13:06 10° S 18:15:30 20° SE 18:15:30 20° SE visible
14 Nov -1.5 17:26:09 10° SSE 17:27:46 13° SE 17:29:24 10° ESE visible
14 Nov -2.0 19:00:42 10° SW 19:02:32 30° SW 19:02:32 30° SW visible
15 Nov -3.3 18:12:47 10° SW 18:15:59 44° SSE 18:16:32 40° ESE visible
15 Nov -0.1 19:49:26 10° W 19:49:27 10° W 19:49:27 10° W visible
16 Nov -2.5 17:25:01 10° SSW 17:27:58 29° SE 17:30:25 13° E visible
16 Nov -2.2 19:01:14 10° WSW 19:03:21 35° W 19:03:21 35° W visible
17 Nov -3.9 18:13:02 10° WSW 18:16:22 90° SE 18:17:09 50° ENE visible
18 Nov -3.6 17:24:53 10° SW 17:28:12 63° SSE 17:30:53 15° ENE visible
18 Nov -1.9 19:01:48 10° W 19:03:48 30° WNW 19:03:48 30° WNW visible
19 Nov -3.4 18:13:26 10° W 18:16:44 56° NNW 18:17:27 44° NE visible
20 Nov -3.7 17:25:05 10° WSW 17:28:25 70° NNW 17:31:04 15° ENE visible
20 Nov -1.7 19:02:14 10° WNW 19:03:59 26° NW 19:03:59 26° NW visible
21 Nov -3.2 18:13:48 10° WNW 18:17:02 44° N 18:17:33 40° NNE visible
22 Nov -3.3 17:25:20 10° W 17:28:35 48° N 17:31:05 16° ENE visible
22 Nov -1.6 19:02:24 10° WNW 19:04:00 25° NW 19:04:00 25° NW visible
